• In Czech Republic
  • List of Countries
  • For 7 days
  • Water Temperature
  • Satellite Maps
  • Weather Map
  • Weather Widgets
  • user-avatar
    Login

    Hourly Weather Casper

    Today, 15 December, Friday

    Time Temperature Precipitation Wind Pressure Humidity
    00:00 -6°C° 0 mm 7 mps 629 mmHg 57%
    01:00 -5°C° 0 mm 6 mps 628 mmHg 58%
    02:00 -5°C° 0 mm 6 mps 628 mmHg 59%
    03:00 -5°C° 0 mm 6 mps 628 mmHg 59%
    04:00 -6°C° 0 mm 7 mps 627 mmHg 60%
    05:00 -5°C° 0 mm 9 mps 627 mmHg 58%
    06:00 -5°C° 0 mm 9 mps 626 mmHg 57%
    07:00 -5°C° 0 mm 8 mps 626 mmHg 56%
    08:00 -4°C° 0 mm 7 mps 626 mmHg 54%
    09:00 -4°C° 0 mm 8 mps 626 mmHg 51%
    10:00 -1°C° 0 mm 8 mps 626 mmHg 48%
    11:00 0°C° 0 mm 8 mps 626 mmHg 45%
    12:00 0°C° 0 mm 8 mps 625 mmHg 45%
    13:00 +1°C° 0 mm 8 mps 625 mmHg 45%
    14:00 +1°C° 0 mm 8 mps 624 mmHg 45%
    15:00 +1°C° 0 mm 8 mps 624 mmHg 46%
    16:00 0°C° 0 mm 8 mps 623 mmHg 47%
    17:00 -1°C° 0 mm 8 mps 623 mmHg 48%
    18:00 -1°C° 0 mm 7 mps 623 mmHg 47%
    19:00 -1°C° 0 mm 7 mps 623 mmHg 46%
    20:00 -1°C° 0 mm 7 mps 622 mmHg 45%
    21:00 -1°C° 0 mm 7 mps 622 mmHg 45%
    22:00 -1°C° 0 mm 6 mps 622 mmHg 45%
    23:00 -1°C° 0 mm 6 mps 622 mmHg 44%

    Tomorrow, 16 December, Saturday

    Time Temperature Precipitation Wind Pressure Humidity
    00:00 0°C° 0 mm 5 mps 622 mmHg 46%
    01:00 0°C° 0 mm 5 mps 622 mmHg 47%
    02:00 0°C° 0 mm 4 mps 622 mmHg 49%
    03:00 -1°C° 0.2 mm 4 mps 622 mmHg 54%
    04:00 0°C° 0.2 mm 3 mps 622 mmHg 58%
    05:00 0°C° 0.2 mm 3 mps 622 mmHg 63%
    06:00 -1°C° 0.5 mm 3 mps 623 mmHg 71%
    07:00 -1°C° 0.5 mm 3 mps 623 mmHg 79%
    08:00 -2°C° 0.5 mm 2 mps 623 mmHg 88%
    09:00 -2°C° 0.6 mm 3 mps 623 mmHg 88%
    10:00 -1°C° 0.6 mm 3 mps 624 mmHg 89%
    11:00 -1°C° 0.6 mm 3 mps 624 mmHg 90%
    12:00 -1°C° 0.5 mm 3 mps 624 mmHg 90%
    13:00 -1°C° 0.5 mm 3 mps 623 mmHg 91%
    14:00 -1°C° 0.5 mm 3 mps 623 mmHg 91%
    15:00 -2°C° 0.6 mm 4 mps 623 mmHg 92%
    16:00 -3°C° 0.6 mm 4 mps 623 mmHg 94%
    17:00 -4°C° 0.6 mm 5 mps 624 mmHg 95%
    18:00 -5°C° 0.7 mm 5 mps 624 mmHg 95%
    19:00 -5°C° 0.7 mm 5 mps 624 mmHg 95%
    20:00 -6°C° 0.7 mm 5 mps 624 mmHg 95%
    21:00 -5°C° 0.5 mm 4 mps 625 mmHg 95%
    22:00 -5°C° 0.5 mm 4 mps 625 mmHg 95%
    23:00 -5°C° 0.5 mm 4 mps 625 mmHg 95%

    Day after tomorrow, 17 December, Sunday

    Time Temperature Precipitation Wind Pressure Humidity
    00:00 -5°C° 0.3 mm 3 mps 625 mmHg 95%
    01:00 -5°C° 0.3 mm 3 mps 625 mmHg 95%
    02:00 -6°C° 0.3 mm 3 mps 625 mmHg 96%
    03:00 -5°C° 0.1 mm 2 mps 625 mmHg 96%
    04:00 -5°C° 0.1 mm 2 mps 625 mmHg 96%
    05:00 -3°C° 0.1 mm 1 mps 625 mmHg 96%
    06:00 -4°C° 0 mm 1 mps 625 mmHg 95%
    07:00 -4°C° 0 mm 1 mps 625 mmHg 95%
    08:00 -4°C° 0 mm 1 mps 626 mmHg 94%
    09:00 -5°C° 0 mm 2 mps 626 mmHg 91%
    10:00 -4°C° 0 mm 2 mps 626 mmHg 89%
    11:00 -5°C° 0 mm 3 mps 626 mmHg 86%
    12:00 -4°C° 0 mm 3 mps 625 mmHg 85%
    13:00 -4°C° 0 mm 4 mps 624 mmHg 84%
    14:00 -3°C° 0 mm 4 mps 624 mmHg 82%
    15:00 -4°C° 0 mm 4 mps 624 mmHg 82%
    16:00 -6°C° 0 mm 5 mps 623 mmHg 82%
    17:00 -7°C° 0 mm 5 mps 623 mmHg 81%
    18:00 -7°C° 0 mm 5 mps 623 mmHg 81%
    19:00 -9°C° 0 mm 6 mps 624 mmHg 80%
    20:00 -9°C° 0 mm 6 mps 624 mmHg 79%
    21:00 -9°C° 0 mm 6 mps 624 mmHg 78%
    22:00 -9°C° 0 mm 6 mps 624 mmHg 77%
    23:00 -10°C° 0 mm 6 mps 624 mmHg 77%

    18 December, Monday

    Time Temperature Precipitation Wind Pressure Humidity
    00:00 -10°C° 0 mm 6 mps 624 mmHg 76%
    01:00 -10°C° 0 mm 6 mps 624 mmHg 75%
    02:00 -10°C° 0 mm 6 mps 623 mmHg 75%
    03:00 -10°C° 0 mm 6 mps 623 mmHg 75%
    04:00 -11°C° 0 mm 7 mps 623 mmHg 75%
    05:00 -11°C° 0 mm 7 mps 623 mmHg 75%
    06:00 -9°C° 0 mm 7 mps 624 mmHg 75%
    07:00 -9°C° 0 mm 7 mps 624 mmHg 74%
    08:00 -8°C° 0 mm 7 mps 624 mmHg 74%
    09:00 -7°C° 0 mm 7 mps 625 mmHg 73%
    10:00 -6°C° 0 mm 7 mps 625 mmHg 72%
    11:00 -5°C° 0 mm 8 mps 626 mmHg 72%
    12:00 -4°C° 0 mm 8 mps 625 mmHg 72%
    13:00 -2°C° 0 mm 8 mps 625 mmHg 72%
    14:00 -2°C° 0 mm 8 mps 625 mmHg 73%
    15:00 -2°C° 0 mm 8 mps 626 mmHg 73%
    16:00 -3°C° 0 mm 7 mps 626 mmHg 74%
    17:00 -4°C° 0 mm 7 mps 626 mmHg 75%
    18:00 -4°C° 0 mm 7 mps 627 mmHg 75%
    19:00 -4°C° 0 mm 6 mps 627 mmHg 75%
    20:00 -4°C° 0 mm 6 mps 628 mmHg 76%
    21:00 -5°C° 0 mm 5 mps 628 mmHg 77%
    22:00 -5°C° 0 mm 5 mps 629 mmHg 79%
    23:00 -5°C° 0 mm 4 mps 629 mmHg 80%

    19 December, Tuesday

    Time Temperature Precipitation Wind Pressure Humidity
    00:00 -5°C° 0 mm 4 mps 629 mmHg 81%
    01:00 -7°C° 0 mm 4 mps 629 mmHg 82%
    02:00 -6°C° 0 mm 3 mps 629 mmHg 83%
    03:00 -6°C° 0 mm 3 mps 630 mmHg 82%
    04:00 -6°C° 0 mm 3 mps 630 mmHg 82%
    05:00 -7°C° 0 mm 3 mps 630 mmHg 82%
    06:00 -6°C° 0 mm 3 mps 630 mmHg 82%
    07:00 -7°C° 0 mm 4 mps 630 mmHg 82%
    08:00 -7°C° 0 mm 4 mps 630 mmHg 82%
    09:00 -5°C° 0 mm 5 mps 630 mmHg 81%
    10:00 -3°C° 0 mm 6 mps 630 mmHg 80%
    11:00 -1°C° 0 mm 7 mps 630 mmHg 78%
    12:00 -1°C° 0 mm 7 mps 630 mmHg 78%
    13:00 0°C° 0 mm 8 mps 629 mmHg 77%
    14:00 +1°C° 0 mm 8 mps 629 mmHg 77%
    15:00 0°C° 0 mm 8 mps 629 mmHg 76%
    16:00 -1°C° 0 mm 8 mps 629 mmHg 76%
    17:00 -1°C° 0 mm 7 mps 629 mmHg 75%
    18:00 -2°C° 0 mm 7 mps 628 mmHg 75%
    19:00 -2°C° 0 mm 7 mps 628 mmHg 74%
    20:00 -2°C° 0 mm 7 mps 628 mmHg 73%
    21:00 -2°C° 0 mm 7 mps 628 mmHg 73%
    22:00 -2°C° 0 mm 8 mps 627 mmHg 72%
    23:00 -2°C° 0 mm 8 mps 627 mmHg 71%

    20 December, Wednesday

    Time Temperature Precipitation Wind Pressure Humidity
    00:00 -2°C° 0 mm 8 mps 626 mmHg 71%
    01:00 -2°C° 0 mm 8 mps 626 mmHg 71%
    02:00 -2°C° 0 mm 8 mps 625 mmHg 70%
    03:00 -2°C° 0 mm 8 mps 624 mmHg 70%
    04:00 -2°C° 0 mm 8 mps 624 mmHg 69%
    05:00 -2°C° 0 mm 8 mps 623 mmHg 68%
    06:00 -2°C° 0 mm 8 mps 623 mmHg 67%
    07:00 -1°C° 0 mm 8 mps 623 mmHg 66%
    08:00 -1°C° 0 mm 8 mps 622 mmHg 66%
    09:00 -1°C° 0 mm 9 mps 622 mmHg 65%
    10:00 0°C° 0 mm 9 mps 621 mmHg 65%
    11:00 +1°C° 0 mm 9 mps 621 mmHg 64%
    12:00 +1°C° 0 mm 9 mps 620 mmHg 65%
    13:00 +1°C° 0 mm 8 mps 620 mmHg 66%
    14:00 +2°C° 0 mm 8 mps 619 mmHg 66%
    15:00 +1°C° 0 mm 8 mps 619 mmHg 66%
    16:00 +1°C° 0 mm 8 mps 619 mmHg 66%
    17:00 0°C° 0 mm 8 mps 619 mmHg 66%
    18:00 -1°C° 0.2 mm 8 mps 620 mmHg 70%
    19:00 -2°C° 0.2 mm 7 mps 620 mmHg 75%
    20:00 -2°C° 0.2 mm 7 mps 621 mmHg 79%
    21:00 -6°C° 1 mm 8 mps 621 mmHg 84%
    22:00 -9°C° 1 mm 9 mps 622 mmHg 89%
    23:00 -12°C° 1 mm 9 mps 622 mmHg 94%
    Show more